Weather History for Monroe, WI

Change the Weather History Date:

Saturday, October 13, 2012

  Actual Average Record
Temperature  
Mean Temperature 52 °F -  
Max Temperature 62 °F 0 °F 75 °F (2000)
Min Temperature 41 °F - 30 °F (2002)
Degree Days  
Heating Degree Days 14    
Growing Degree Days 2 (Base 50)    
Moisture  
Dew Point 52 °F    
Average Humidity 96    
Maximum Humidity 100    
Minimum Humidity 57    
Precipitation  
Precipitation 0.48 in - - ()
Sea Level Pressure  
Sea Level Pressure 29.90 in    
Wind  
Wind Speed 14 mph (South)    
Max Wind Speed 22 mph    
Max Gust Speed 29 mph    
Visibility 5 miles    
Events Fog , Rain , Thunderstorm    
Averages and records for this station are not official NWS values.
T = Trace of Precipitation, MM = Missing Value Source: NWS Daily Summary

Daily Weather History Graph

Daily Weather History Graph

Search for Another Location

Airport:

Trip Planner

Search our weather history database for the weather conditions in past years. The results will help you decide how hot, cold, wet, or windy it might be!

Date:

Astronomy

Oct. 13, 2012 Rise Set
Actual Time 7:09 AM CDT 6:18 PM CDT
Civil Twilight 6:41 AM CDT 6:46 PM CDT
Nautical Twilight 6:08 AM CDT 7:19 PM CDT
Astronomical Twilight 5:35 AM CDT 7:52 PM CDT
Moon 4:57 AM CDT (10/13) 5:03 PM CDT (10/13)
Length of Visible Light 12h 05m
Length of Day
11h 08m
Waning Crescent, 5% of the Moon is Illuminated
Oct 13
Waning Crescent
Oct 15
New
Oct 21
First Quarter
Oct 29
Full
Nov 6
Last Quarter

Hourly Weather History & Observations

Time (CDT) Temp. Windchill Dew Point Humidity Pressure Visibility Wind Dir Wind Speed Gust Speed Precip Events Conditions
12:15 AM 44.6 °F 39.7 °F 30.2 °F 57% 30.21 in 10.0 mi SE 9.2 mph - N/A   Overcast
1:35 AM 42.8 °F 38.6 °F 33.8 °F 70% 30.16 in 10.0 mi SE 6.9 mph - 0.01 in Rain Light Rain
1:55 AM 42.8 °F 35.4 °F 35.6 °F 76% 30.15 in 10.0 mi SSE 15.0 mph - 0.02 in Rain Light Rain
2:15 AM 42.8 °F 35.4 °F 35.6 °F 76% 30.12 in 10.0 mi SSE 15.0 mph - N/A   Drizzle
2:35 AM 41.0 °F 34.3 °F 39.2 °F 93% 30.12 in 10.0 mi SSE 11.5 mph - 0.01 in Rain Light Rain
2:55 AM 42.8 °F 36.2 °F 41.0 °F 93% 30.11 in 7.0 mi South 12.7 mph 17.3 mph 0.03 in Rain Rain
3:15 AM 42.8 °F 34.8 °F 41.0 °F 93% 30.08 in 5.0 mi SSE 17.3 mph - 0.07 in Rain Light Rain
3:35 AM 42.8 °F 35.4 °F 41.0 °F 93% 30.08 in 10.0 mi South 15.0 mph - 0.10 in Rain Rain
3:55 AM 42.8 °F 35.1 °F 41.0 °F 93% 30.05 in 7.0 mi SSE 16.1 mph - 0.11 in Rain Rain
4:15 AM 44.6 °F 36.9 °F 42.8 °F 93% 30.05 in 10.0 mi SSE 18.4 mph 24.2 mph N/A   Light Drizzle
4:35 AM 44.6 °F 36.1 °F 42.8 °F 93% 30.04 in 10.0 mi SSE 21.9 mph 28.8 mph 0.01 in   Overcast
4:55 AM 44.6 °F 36.6 °F 42.8 °F 93% 30.04 in 10.0 mi SSE 19.6 mph 24.2 mph 0.01 in Thunderstorm Unknown
5:35 AM 44.6 °F 40.2 °F 42.8 °F 93% 30.06 in 10.0 mi South 8.1 mph - N/A   Overcast
5:55 AM 44.6 °F 38.4 °F 42.8 °F 93% 30.04 in 10.0 mi South 12.7 mph - N/A   Overcast
6:15 AM 44.6 °F 38.4 °F 42.8 °F 93% 30.03 in 10.0 mi South 12.7 mph - N/A   Light Drizzle
6:35 AM 44.6 °F 38.4 °F 42.8 °F 93% 30.01 in 10.0 mi SSE 12.7 mph - N/A   Overcast
6:55 AM 44.6 °F 39.2 °F 44.6 °F 100% 30.00 in 10.0 mi SSE 10.4 mph - N/A Rain Light Rain
7:15 AM 46.4 °F 41.9 °F 44.6 °F 93% 30.00 in 10.0 mi South 9.2 mph - N/A   Overcast
7:35 AM 46.4 °F 41.1 °F 44.6 °F 93% 29.99 in 10.0 mi South 11.5 mph 17.3 mph N/A   Overcast
7:55 AM 46.4 °F 40.1 °F 46.4 °F 100% 29.95 in 10.0 mi SSE 15.0 mph - N/A   Overcast
8:15 AM 48.2 °F - 46.4 °F 93% 29.95 in 10.0 mi South 13.8 mph 21.9 mph N/A   Overcast
8:55 AM 50.0 °F - 48.2 °F 94% 29.94 in 10.0 mi South 18.4 mph 21.9 mph N/A   Mostly Cloudy
9:35 AM 51.8 °F - 50.0 °F 94% 29.95 in 10.0 mi SSW 19.6 mph 25.3 mph N/A Rain Light Rain
9:55 AM 51.8 °F - 50.0 °F 94% 29.96 in 7.0 mi SSW 21.9 mph 26.5 mph 0.01 in Rain Light Rain
10:35 AM 51.8 °F - 50.0 °F 94% 29.93 in 5.0 mi South 18.4 mph 24.2 mph 0.06 in Rain Rain
11:15 AM 51.8 °F - 51.8 °F 100% 29.89 in 3.0 mi South 18.4 mph - 0.01 in Rain Light Rain
11:35 AM 51.8 °F - 51.8 °F 100% 29.88 in 4.0 mi South 19.6 mph 25.3 mph 0.02 in   Drizzle
11:55 AM 53.6 °F - 53.6 °F 100% 29.87 in 4.0 mi South 16.1 mph - 0.02 in Rain Light Rain
12:35 PM 53.6 °F - 53.6 °F 100% 29.86 in 2.0 mi South 21.9 mph 25.3 mph 0.01 in Rain Light Rain
12:55 PM 53.6 °F - 53.6 °F 100% 29.85 in 2.5 mi SSW 17.3 mph 23.0 mph 0.01 in   Light Drizzle
1:15 PM 53.6 °F - 53.6 °F 100% 29.84 in 1.2 mi SSW 17.3 mph 23.0 mph N/A Rain Light Rain
1:35 PM 55.4 °F - 55.4 °F 100% 29.82 in 1.0 mi South 18.4 mph 25.3 mph N/A   Overcast
1:55 PM 55.4 °F - 55.4 °F 100% 29.82 in 1.2 mi SSW 17.3 mph 25.3 mph N/A   Overcast
2:15 PM 55.4 °F - 55.4 °F 100% 29.80 in 0.2 mi South 15.0 mph 21.9 mph 0.01 in Rain Light Rain
2:35 PM 57.2 °F - 57.2 °F 100% 29.80 in 0.5 mi South 17.3 mph 21.9 mph 0.01 in Fog Fog
2:55 PM 57.2 °F - 57.2 °F 100% 29.78 in 0.2 mi South 19.6 mph - 0.01 in Rain Light Rain
3:35 PM 59.0 °F - 59.0 °F 100% 29.78 in 4.0 mi South 16.1 mph - N/A   Overcast
3:55 PM 59.0 °F - 59.0 °F 100% 29.79 in 2.5 mi SSW 18.4 mph 25.3 mph N/A   Overcast
4:15 PM 59.0 °F - 59.0 °F 100% 29.78 in 3.0 mi South 16.1 mph 23.0 mph N/A   Overcast
4:35 PM 59.0 °F - 59.0 °F 100% 29.77 in 1.5 mi South 17.3 mph 25.3 mph N/A   Overcast
4:55 PM 59.0 °F - 59.0 °F 100% 29.76 in 0.8 mi SSW 17.3 mph 21.9 mph N/A   Overcast
5:15 PM 59.0 °F - 59.0 °F 100% 29.77 in 0.5 mi SSW 19.6 mph 25.3 mph N/A Fog Fog
5:35 PM 59.0 °F - 59.0 °F 100% 29.78 in 0.5 mi SSW 19.6 mph 25.3 mph N/A Rain Light Rain
5:55 PM 60.8 °F - 60.8 °F 100% 29.79 in 0.8 mi SSW 16.1 mph 20.7 mph N/A   Overcast
6:15 PM 60.8 °F - 60.8 °F 100% 29.80 in 0.5 mi SSW 15.0 mph 20.7 mph N/A Fog Fog
6:35 PM 60.8 °F - 60.8 °F 100% 29.79 in 2.5 mi SSW 13.8 mph 23.0 mph N/A   Overcast
6:55 PM 60.8 °F - 60.8 °F 100% 29.78 in 3.0 mi SSW 12.7 mph 18.4 mph N/A   Overcast
7:35 PM 60.8 °F - 60.8 °F 100% 29.79 in 2.5 mi South 12.7 mph - N/A   Overcast
7:55 PM 60.8 °F - 60.8 °F 100% 29.78 in 2.0 mi SSW 10.4 mph - N/A   Overcast
8:35 PM 60.8 °F - 60.8 °F 100% 29.78 in 2.0 mi SSW 6.9 mph - N/A   Overcast
9:15 PM 60.8 °F - 60.8 °F 100% 29.77 in 1.2 mi SSW 8.1 mph - 0.01 in   Drizzle
9:35 PM 62.6 °F - 62.6 °F 100% 29.76 in 1.5 mi South 10.4 mph - 0.01 in   Drizzle
9:55 PM 62.6 °F - 62.6 °F 100% 29.75 in 2.5 mi South 10.4 mph - 0.02 in   Drizzle
10:15 PM 62.6 °F - 62.6 °F 100% 29.75 in 3.0 mi South 13.8 mph - N/A   Overcast
10:55 PM 62.6 °F - 62.6 °F 100% 29.75 in 4.0 mi SSW 12.7 mph - N/A Rain Light Rain
11:15 PM 62.6 °F - 62.6 °F 100% 29.74 in 2.5 mi South 13.8 mph - 0.06 in Rain Heavy Rain
11:35 PM 62.6 °F - 62.6 °F 100% 29.73 in 2.0 mi SSW 11.5 mph - 0.18 in Rain Light Rain